Hourly Weather Acquapendente

Today, 29 July, Thursday

Time Temperature Precipitation Wind Pressure Humidity
00:00 +21°C° 0 mm 1 mps 718 mmHg 57%
01:00 +20°C° 0 mm 1 mps 718 mmHg 57%
02:00 +20°C° 0 mm 1 mps 718 mmHg 58%
03:00 +20°C° 0 mm 1 mps 718 mmHg 59%
04:00 +20°C° 0 mm 1 mps 717 mmHg 60%
05:00 +21°C° 0 mm 1 mps 718 mmHg 56%
06:00 +23°C° 0 mm 1 mps 718 mmHg 53%
07:00 +24°C° 0 mm 1 mps 718 mmHg 49%
08:00 +27°C° 0 mm 2 mps 718 mmHg 44%
09:00 +29°C° 0 mm 2 mps 719 mmHg 39%
10:00 +33°C° 0 mm 3 mps 719 mmHg 33%
11:00 +34°C° 0 mm 3 mps 719 mmHg 32%
12:00 +35°C° 0 mm 4 mps 718 mmHg 30%
13:00 +36°C° 0 mm 4 mps 718 mmHg 29%
14:00 +36°C° 0 mm 4 mps 718 mmHg 30%
15:00 +35°C° 0 mm 5 mps 718 mmHg 32%
16:00 +35°C° 0 mm 5 mps 717 mmHg 33%
17:00 +33°C° 0 mm 4 mps 717 mmHg 41%
18:00 +30°C° 0 mm 3 mps 717 mmHg 49%
19:00 +28°C° 0 mm 3 mps 717 mmHg 57%
20:00 +26°C° 0 mm 2 mps 717 mmHg 68%
21:00 +24°C° 0 mm 1 mps 717 mmHg 78%
22:00 +22°C° 0 mm 1 mps 717 mmHg 88%
23:00 +21°C° 0 mm 1 mps 717 mmHg 88%

Tomorrow, 30 July, Friday

Time Temperature Precipitation Wind Pressure Humidity
00:00 +21°C° 0 mm 1 mps 717 mmHg 88%
01:00 +18°C° 0 mm 0 mps 717 mmHg 88%
02:00 +18°C° 0 mm 0 mps 717 mmHg 87%
03:00 +18°C° 0 mm 0 mps 717 mmHg 85%
04:00 +18°C° 0 mm 0 mps 717 mmHg 84%
05:00 +20°C° 0 mm 0 mps 717 mmHg 76%
06:00 +21°C° 0 mm 0 mps 717 mmHg 69%
07:00 +23°C° 0 mm 0 mps 717 mmHg 61%
08:00 +27°C° 0 mm 1 mps 718 mmHg 51%
09:00 +30°C° 0 mm 1 mps 718 mmHg 40%
10:00 +34°C° 0 mm 2 mps 718 mmHg 30%
11:00 +35°C° 0 mm 3 mps 718 mmHg 28%
12:00 +36°C° 0 mm 4 mps 718 mmHg 25%
13:00 +37°C° 0 mm 4 mps 717 mmHg 23%
14:00 +37°C° 0 mm 5 mps 717 mmHg 24%
15:00 +36°C° 0 mm 5 mps 717 mmHg 24%
16:00 +36°C° 0 mm 5 mps 717 mmHg 25%
17:00 +34°C° 0 mm 4 mps 716 mmHg 31%
18:00 +31°C° 0 mm 3 mps 716 mmHg 36%
19:00 +29°C° 0 mm 2 mps 716 mmHg 42%
20:00 +26°C° 0 mm 2 mps 716 mmHg 52%
21:00 +24°C° 0 mm 1 mps 716 mmHg 61%
22:00 +22°C° 0 mm 1 mps 716 mmHg 71%
23:00 +22°C° 0 mm 1 mps 716 mmHg 70%

Day after tomorrow, 31 July, Saturday

Time Temperature Precipitation Wind Pressure Humidity
00:00 +21°C° 0 mm 1 mps 716 mmHg 69%
01:00 +21°C° 0 mm 1 mps 716 mmHg 68%
02:00 +21°C° 0 mm 1 mps 715 mmHg 67%
03:00 +21°C° 0 mm 1 mps 715 mmHg 67%
04:00 +20°C° 0 mm 1 mps 715 mmHg 66%
05:00 +22°C° 0 mm 1 mps 715 mmHg 60%
06:00 +23°C° 0 mm 1 mps 715 mmHg 55%
07:00 +25°C° 0 mm 1 mps 716 mmHg 49%
08:00 +27°C° 0 mm 2 mps 716 mmHg 44%
09:00 +30°C° 0 mm 3 mps 716 mmHg 38%
10:00 +33°C° 0 mm 3 mps 716 mmHg 32%
11:00 +34°C° 0 mm 4 mps 716 mmHg 30%
12:00 +35°C° 0 mm 4 mps 716 mmHg 28%
13:00 +36°C° 0 mm 5 mps 715 mmHg 25%
14:00 +36°C° 0 mm 5 mps 715 mmHg 26%
15:00 +35°C° 0 mm 5 mps 715 mmHg 27%
16:00 +35°C° 0 mm 5 mps 715 mmHg 28%
17:00 +33°C° 0 mm 4 mps 715 mmHg 34%
18:00 +30°C° 0 mm 4 mps 714 mmHg 40%
19:00 +27°C° 0 mm 3 mps 714 mmHg 47%
20:00 +26°C° 0 mm 2 mps 714 mmHg 54%
21:00 +24°C° 0 mm 2 mps 713 mmHg 62%
22:00 +21°C° 0 mm 2 mps 713 mmHg 69%
23:00 +21°C° 0 mm 2 mps 713 mmHg 71%

1 August, Sunday

Time Temperature Precipitation Wind Pressure Humidity
00:00 +21°C° 0 mm 2 mps 713 mmHg 73%
01:00 +21°C° 0 mm 2 mps 714 mmHg 75%
02:00 +20°C° 0.5 mm 2 mps 713 mmHg 80%
03:00 +20°C° 0.5 mm 2 mps 713 mmHg 84%
04:00 +20°C° 0.5 mm 2 mps 712 mmHg 89%
05:00 +21°C° 0 mm 2 mps 713 mmHg 86%
06:00 +22°C° 0 mm 3 mps 713 mmHg 84%
07:00 +24°C° 0 mm 3 mps 713 mmHg 81%
08:00 +26°C° 0 mm 3 mps 713 mmHg 71%
09:00 +27°C° 0 mm 4 mps 714 mmHg 61%
10:00 +29°C° 0 mm 4 mps 714 mmHg 52%
11:00 +30°C° 0 mm 4 mps 714 mmHg 46%
12:00 +32°C° 0 mm 5 mps 714 mmHg 41%
13:00 +33°C° 0 mm 5 mps 714 mmHg 35%
14:00 +33°C° 0 mm 6 mps 714 mmHg 36%
15:00 +32°C° 0 mm 6 mps 714 mmHg 38%
16:00 +30°C° 0 mm 6 mps 714 mmHg 39%
17:00 +28°C° 0 mm 5 mps 715 mmHg 43%
18:00 +27°C° 0 mm 4 mps 715 mmHg 48%
19:00 +25°C° 0 mm 4 mps 715 mmHg 53%
20:00 +22°C° 0 mm 3 mps 715 mmHg 59%
21:00 +20°C° 0 mm 2 mps 715 mmHg 66%
22:00 +19°C° 0 mm 1 mps 715 mmHg 72%
23:00 +19°C° 0 mm 1 mps 716 mmHg 75%

2 August, Monday

Time Temperature Precipitation Wind Pressure Humidity
00:00 +18°C° 0 mm 1 mps 716 mmHg 78%
01:00 +18°C° 0 mm 1 mps 716 mmHg 82%
02:00 +18°C° 0 mm 1 mps 716 mmHg 85%
03:00 +18°C° 0 mm 1 mps 716 mmHg 88%
04:00 +16°C° 0 mm 1 mps 716 mmHg 91%
05:00 +18°C° 0 mm 1 mps 716 mmHg 86%
06:00 +19°C° 0 mm 2 mps 716 mmHg 81%
07:00 +20°C° 0 mm 2 mps 717 mmHg 76%
08:00 +23°C° 0 mm 2 mps 717 mmHg 62%
09:00 +26°C° 0 mm 2 mps 718 mmHg 47%
10:00 +29°C° 0 mm 2 mps 718 mmHg 33%
11:00 +30°C° 0 mm 2 mps 718 mmHg 30%
12:00 +31°C° 0 mm 3 mps 718 mmHg 27%
13:00 +33°C° 0 mm 3 mps 718 mmHg 24%
14:00 +33°C° 0 mm 4 mps 718 mmHg 25%
15:00 +32°C° 0 mm 5 mps 718 mmHg 27%
16:00 +32°C° 0 mm 5 mps 718 mmHg 28%
17:00 +29°C° 0 mm 4 mps 717 mmHg 33%
18:00 +27°C° 0 mm 3 mps 717 mmHg 38%
19:00 +25°C° 0 mm 2 mps 717 mmHg 43%
20:00 +23°C° 0 mm 2 mps 717 mmHg 53%
21:00 +21°C° 0 mm 1 mps 717 mmHg 63%
22:00 +19°C° 0 mm 1 mps 717 mmHg 74%
23:00 +19°C° 0 mm 1 mps 717 mmHg 77%

3 August, Tuesday

Time Temperature Precipitation Wind Pressure Humidity
00:00 +19°C° 0 mm 1 mps 718 mmHg 81%
01:00 +17°C° 0 mm 2 mps 718 mmHg 85%
02:00 +18°C° 0 mm 1 mps 717 mmHg 86%
03:00 +19°C° 0 mm 1 mps 717 mmHg 88%
04:00 +19°C° 0 mm 1 mps 717 mmHg 90%
05:00 +19°C° 0.3 mm 1 mps 717 mmHg 88%
06:00 +20°C° 0.3 mm 1 mps 717 mmHg 85%
07:00 +20°C° 0.3 mm 1 mps 717 mmHg 83%
08:00 +23°C° 0.1 mm 1 mps 717 mmHg 71%
09:00 +25°C° 0.1 mm 1 mps 717 mmHg 60%
10:00 +27°C° 0.1 mm 2 mps 717 mmHg 48%
11:00 +28°C° 0 mm 3 mps 717 mmHg 42%
12:00 +30°C° 0 mm 4 mps 717 mmHg 36%
13:00 +33°C° 0 mm 5 mps 716 mmHg 30%
14:00 +32°C° 0 mm 5 mps 716 mmHg 32%
15:00 +30°C° 0 mm 5 mps 716 mmHg 34%
16:00 +30°C° 0 mm 5 mps 716 mmHg 36%
17:00 +28°C° 0 mm 5 mps 715 mmHg 44%
18:00 +26°C° 0 mm 4 mps 715 mmHg 52%
19:00 +25°C° 0 mm 3 mps 715 mmHg 60%
20:00 +23°C° 0 mm 2 mps 715 mmHg 65%
21:00 +22°C° 0 mm 1 mps 716 mmHg 70%
22:00 +20°C° 0 mm 1 mps 716 mmHg 75%
23:00 +20°C° 0 mm 1 mps 716 mmHg 77%
Show more

We Need Your Consent

Meteoprog and our Service Providers may store and access personal data such as cookies, device identifiers or other similar technologies on your device and process such data to personalise content and ads, as well as provide social media features and to analyse the traffic.

  • Store and/or access information on your device

    Cookies, device identifiers or other information can be stored or accessed on your device for the purposes indicated above.

  • Personalised ads and content, ad and content measurement, audience insights, and products development

    Ads and content can be personalised based on a profile. More data can be added to better personalise ads and content. Ad and content performance can be measured. Insights about the audience who saw the ads and content can be derived. Such data can be used to develop or improve user’s experience, systems and software.

By clicking ‘I Agree’ you will allow the use of indicated cookies, device identifiers, web beacons or other similar technologies. Your settings can be changed in the browser on your device.

For certain purposes, legitimate interests may be relied on, rather than consent. You can read more about this in our Privacy and Cookie Policy.